EHI
14 19 18 9 2 0 0 0 0 0 0 0 0 0 1 1 1 1 0 1 2 3 2 1 0 0 0 0 0 0 1 0 0 0 0 0 0 0 0 0 0 0 0 0 0 0 0 0 0
14 16 13 6 1 0 0 0 0 0 0 0 0 0 1 1 0 0 0 0 1 2 1 0 0 0 0 0 0 0 1 0 0 0 0 0 0 0 0 0 0 0 0 0 0 0 0 0 0
12 11 7 2 0 0 0 1 0 0 0 0 0 0 0 0 0 0 0 0 0 0 0 0 0 0 1 0 0 0 0 0 0 0 0 0 0 0 0 0 0 0 0 0 0 0 0 0 1
8 6 3 0 0 0 0 0 0 0 0 0 0 0 0 0 0 0 0 1 1 0 0 0 0 0 0 0 0 0 0 0 0 0 0 0 0 0 0 0 0 0 0 0 0 0 0 1 2
4 3 1 0 0 0 0 0 0 0 0 0 0 0 0 0 1 0 0 1 1 0 0 0 0 0 0 0 0 1 0 0 0 0 0 0 0 0 0 0 0 0 0 0 0 0 0 1 2
3 1 0 0 0 0 0 0 0 0 0 0 0 0 0 0 0 0 0 1 1 0 0 0 0 0 0 0 0 0 0 0 0 0 0 0 0 0 0 0 0 0 0 0 0 0 0 0 1
2 1 0 0 0 0 0 0 0 0 0 0 0 0 0 0 0 0 0 0 0 0 0 0 0 0 0 0 0 0 0 0 0 0 0 0 0 0 0 0 0 0 0 0 0 0 0 0 0
2 1 0 0 0 0 0 0 0 0 0 0 0 0 0 1 1 1 0 0 0 0 0 0 0 0 0 0 0 0 0 0 0 0 0 0 0 0 0 0 0 0 0 0 0 0 0 0 0
1 1 0 0 0 0 0 0 0 0 0 0 0 0 0 1 1 1 1 0 0 0 0 0 0 0 0 0 0 0 0 0 0 0 0 0 0 0 0 0 0 0 0 0 0 0 0 0 0
0 0 0 0 0 0 0 0 0 0 0 0 0 0 0 0 0 0 0 0 0 0 0 0 0 0 0 0 0 0 0 0 0 0 0 0 0 0 0 0 0 0 0 0 0 0 0 0 0
0 0 0 0 0 0 0 0 0 0 0 0 0 0 0 0 0 0 0 0 0 0 0 0 0 0 0 0 0 0 0 0 0 0 0 0 0 0 0 0 0 0 0 0 0 0 0 0 0
0 0 0 0 0 0 0 0 0 0 0 0 0 0 0 0 0 0 0 0 0 0 0 0 0 0 0 0 0 0 0 0 0 0 0 0 0 0 0 0 0 0 0 0 0 0 0 0 0
0 0 0 0 0 0 0 0 0 0 0 0 0 0 0 0 0 0 0 0 0 0 0 0 0 0 0 0 0 0 0 0 0 0 0 0 0 0 0 0 0 0 0 0 0 0 0 0 0
0 0 0 0 0 0 0 0 0 0 0 0 0 0 1 1 1 0 0 0 0 0 0 0 0 0 0 0 0 0 0 0 0 0 0 0 0 0 0 0 0 0 0 0 0 0 0 0 0
0 0 0 0 0 0 0 0 0 0 0 0 0 0 1 1 1 0 0 0 0 0 0 0 0 0 0 0 0 0 0 0 0 0 0 0 0 0 0 0 0 0 0 0 0 0 0 0 0
0 0 0 0 0 0 0 0 0 0 0 0 0 0 0 1 1 0 0 0 0 0 0 0 0 0 0 0 0 0 0 0 0 0 0 0 0 0 0 0 0 0 0 0 0 0 0 0 0
0 0 0 0 0 0 0 0 0 0 0 0 0 0 0 1 2 1 0 0 0 0 0 0 0 0 0 0 0 0 0 0 0 0 0 0 0 0 0 0 0 0 0 0 0 0 0 0 0
0 0 0 0 0 0 0 0 0 0 0 1 1 0 0 1 2 2 1 0 0 0 0 0 0 0 0 0 0 0 0 0 0 0 0 0 0 0 0 0 0 0 0 0 0 0 0 0 0
0 0 0 0 0 0 0 0 0 0 1 2 2 1 0 1 3 3 2 1 0 0 0 0 0 0 0 0 0 0 0 0 0 0 0 0 0 0 0 0 0 0 0 0 0 0 0 0 0
0 0 0 0 0 0 0 0 0 0 1 2 3 2 1 1 3 4 3 1 0 0 0 0 0 0 0 0 0 0 0 0 0 0 0 0 0 0 0 0 0 0 0 0 0 0 0 0 0
0 0 0 0 0 0 0 0 0 0 1 2 3 2 1 0 2 4 3 1 0 0 0 0 0 0 0 0 0 0 0 0 0 0 0 0 0 0 0 0 0 0 0 0 0 0 0 0 0
0 0 0 0 0 0 0 0 0 0 0 1 2 2 1 0 1 3 3 1 0 1 1 0 0 0 0 0 0 0 0 0 0 0 0 0 0 0 0 0 0 0 0 0 0 0 0 0 0
0 0 0 0 0 0 0 0 0 0 0 0 1 1 0 0 1 2 2 1 0 1 1 1 0 0 0 0 0 0 0 0 0 0 0 0 0 0 0 0 0 0 0 0 0 0 0 0 0
0 0 0 0 0 0 0 0 0 0 0 0 0 0 0 0 1 1 1 0 0 1 1 1 0 0 0 0 0 0 0 0 0 0 0 0 0 0 0 0 0 0 0 0 0 0 0 0 0
0 0 0 0 0 0 0 0 0 0 0 0 0 0 0 0 0 0 0 0 0 0 1 1 0 0 0 0 0 0 0 0 0 0 0 0 0 0 0 0 0 0 0 0 0 0 0 0 0
0 0 0 0 0 0 0 0 0 0 0 0 0 0 0 0 0 0 0 0 0 0 0 0 0 1 1 1 1 1 2 1 1 0 0 0 0 0 0 0 0 0 0 0 0 0 0 0 0
0 0 0 0 0 0 0 0 0 0 0 0 0 0 1 1 1 0 0 0 1 1 0 0 1 2 2 2 2 2 2 2 1 0 0 0 0 0 0 0 0 0 0 0 0 0 0 0 0
0 0 0 0 0 0 0 0 0 0 0 0 0 0 1 2 1 0 0 1 2 2 1 1 2 2 2 1 1 1 1 1 0 0 0 0 0 0 0 0 0 0 0 0 0 0 0 0 0
0 0 0 0 0 0 0 0 0 0 0 0 0 0 0 1 1 0 0 1 2 3 2 1 2 1 1 0 0 0 0 0 0 0 0 0 0 0 0 0 0 0 0 0 0 0 0 0 0
0 0 0 0 0 0 0 0 0 0 0 0 0 0 0 0 0 0 0 0 2 2 1 1 1 0 0 0 0 0 0 0 0 0 0 0 0 0 0 0 0 0 0 0 0 0 0 0 0
Wind_Speed
7 7 5 2 3 2 1 4 6 5 5 6 7 8 11 11 8 7 3 6 8 9 9 9 10 9 9 10 10 10 11 11 11 10 10 10 10 10 9 9 9 9 8 8 8 8 8 8 8
7 4 3 3 3 1 3 5 7 7 5 4 6 10 12 11 10 7 4 6 8 9 9 9 10 10 10 10 10 11 11 11 11 10 10 10 10 9 9 9 9 9 8 8 8 8 8 8 8
8 5 3 2 2 2 3 5 6 6 5 5 6 10 9 7 7 5 4 6 8 10 9 9 10 10 10 11 11 11 11 10 10 10 9 9 9 9 9 9 8 8 8 8 8 8 8 8 7
4 2 3 1 1 5 5 5 5 5 5 6 7 10 8 7 6 6 6 8 9 10 9 9 10 10 11 11 11 11 10 10 10 9 9 8 9 9 9 8 9 8 8 8 8 8 8 8 7
2 3 2 1 2 5 6 5 4 5 5 8 9 10 8 8 8 8 7 8 9 9 9 9 10 10 10 10 10 10 10 10 9 9 8 8 8 8 9 9 9 9 9 8 8 8 8 8 8
2 3 2 0 4 6 6 5 5 7 7 7 8 9 7 7 7 7 8 7 8 9 9 9 10 11 10 10 10 10 10 9 8 8 7 7 8 8 8 9 9 9 8 8 8 8 8 8 7
2 3 2 1 3 4 5 5 6 6 6 6 4 8 7 7 6 6 7 6 6 7 8 7 8 9 10 11 10 9 8 7 6 6 6 6 6 7 8 8 8 8 8 8 7 7 7 7 6
2 2 2 2 3 4 5 5 6 6 6 5 4 7 7 7 7 6 6 5 5 5 6 6 7 7 7 7 8 7 7 6 5 4 4 4 4 6 7 8 8 8 7 7 6 6 6 5 4
3 2 1 3 3 4 4 5 5 5 6 7 9 9 10 10 8 7 6 5 5 5 4 5 6 5 5 6 7 6 6 5 4 3 4 3 3 3 4 7 7 6 6 5 5 5 4 3 1
2 1 3 4 3 4 4 5 4 4 6 7 10 11 11 9 8 7 7 6 5 4 4 5 5 4 4 4 4 2 3 2 2 1 2 1 2 3 5 6 6 5 4 3 2 2 2 1 0
1 2 3 4 5 4 4 4 3 4 4 6 10 11 9 9 7 7 6 6 6 5 4 4 4 4 4 3 2 1 1 1 2 1 1 2 2 2 3 3 3 2 3 1 2 1 1 0 1
2 3 3 3 4 2 2 3 4 5 5 7 9 11 10 8 7 6 6 5 5 5 3 3 3 4 4 4 2 2 1 1 2 1 2 2 1 1 1 1 2 1 1 1 1 1 2 3 3
2 2 3 3 3 2 4 4 4 5 8 8 9 9 8 7 6 6 6 5 5 5 4 4 3 4 4 3 1 3 2 2 2 2 2 2 1 1 1 2 2 2 2 1 2 3 4 5 5
3 4 4 3 3 2 3 3 3 5 8 8 8 7 7 6 6 6 6 6 6 5 5 4 4 3 3 2 2 2 2 2 2 2 2 2 2 2 2 2 2 2 2 1 2 4 4 4 4
3 4 3 2 3 3 2 2 3 6 6 7 7 7 7 7 6 6 5 5 5 5 5 4 3 4 4 3 3 2 2 2 2 2 3 3 2 2 2 2 2 2 2 3 3 4 3 3 3
5 4 3 3 3 4 3 2 5 6 6 6 6 6 6 6 6 5 5 5 5 5 5 4 3 5 4 3 2 2 3 3 2 2 3 4 3 3 3 3 2 2 3 2 2 3 3 3 3
4 3 2 4 3 3 3 2 6 7 6 6 6 7 7 7 7 6 5 5 5 5 5 4 3 4 3 2 2 3 3 2 2 3 3 4 4 4 3 2 2 3 3 2 3 3 2 2 2
2 2 1 2 3 3 3 3 6 8 7 6 6 7 8 8 8 8 6 5 5 5 5 5 4 3 3 2 2 2 3 2 3 3 3 4 3 4 3 2 3 4 3 3 3 3 2 2 1
4 2 1 1 3 2 3 4 6 8 7 6 7 7 7 8 9 8 7 6 5 5 5 5 5 3 3 2 2 2 1 1 2 2 3 3 3 4 3 2 3 3 3 2 3 3 2 1 1
4 3 1 1 1 2 3 4 6 8 8 7 7 7 7 8 9 10 9 7 6 5 5 6 5 4 4 2 1 1 2 1 2 2 3 3 3 3 2 2 2 3 2 3 3 3 2 1 1
3 3 2 1 2 5 5 5 6 7 7 7 7 7 7 9 11 11 10 8 7 6 5 5 5 5 5 4 1 1 2 2 2 2 1 2 3 3 3 3 2 2 2 2 2 2 2 2 2
2 2 3 4 4 4 6 3 4 7 8 9 8 7 7 7 9 10 9 9 7 6 6 5 5 5 5 4 2 1 2 1 1 2 1 2 3 3 3 3 3 3 3 2 2 3 2 2 2
2 3 5 7 6 6 6 3 2 6 8 9 9 9 8 9 9 10 10 9 8 7 6 5 4 4 4 4 3 1 1 1 2 2 3 2 3 3 3 3 3 3 3 3 3 3 2 2 1
3 4 7 7 4 5 5 4 2 3 5 8 9 10 10 10 9 9 9 8 7 7 5 4 4 4 4 4 4 2 2 2 3 2 2 2 2 2 3 3 3 3 3 3 2 2 2 2 3
4 3 2 2 3 3 1 1 2 3 4 5 7 9 10 10 10 9 9 9 8 8 7 5 5 5 4 4 4 4 3 2 3 2 2 1 2 2 2 3 2 2 2 2 2 2 2 2 2
4 3 2 2 2 1 1 1 3 4 4 4 6 7 9 9 10 10 10 9 8 8 8 7 6 5 5 4 4 4 3 2 2 2 2 2 2 2 3 2 2 2 2 2 3 2 2 2 2
3 3 4 4 5 3 0 2 4 5 5 4 6 7 8 10 10 10 10 10 9 8 8 8 7 6 6 4 4 3 3 3 3 2 2 2 2 2 3 3 2 3 3 3 2 2 2 3 3
6 5 2 2 2 2 0 1 1 3 3 3 5 6 7 8 10 10 9 10 9 8 8 8 8 7 6 5 4 4 4 3 2 2 2 2 2 2 2 2 3 3 3 3 2 2 2 2 2
6 5 3 2 3 2 1 1 3 3 3 3 4 5 6 8 9 10 9 9 9 8 8 7 7 6 6 6 5 4 4 4 3 2 2 2 2 2 2 2 2 3 3 3 2 2 2 2 1
5 5 4 3 3 2 0 1 3 3 3 4 4 5 5 7 8 9 9 8 8 8 8 8 7 7 6 6 5 5 4 4 4 3 3 3 2 2 2 2 1 2 2 2 2 1 1 2 2
Wind_Direction
250 233 222 228 242 230 49 54 70 58 61 50 49 62 68 50 51 85 104 85 93 99 101 93 86 86 87 89 86 84 81 79 76 73 72 71 71 70 69 69 72 69 69 69 68 66 65 64 65
262 241 231 236 254 269 70 70 70 66 79 84 64 67 73 67 70 90 91 86 96 101 96 90 90 88 88 89 87 85 81 79 78 74 71 70 70 69 69 70 70 69 69 68 70 69 67 66 65
251 248 250 246 306 23 70 79 87 84 71 60 72 63 58 59 74 84 104 103 98 95 94 96 95 92 89 89 88 85 82 80 77 73 71 69 69 70 69 69 70 69 67 66 66 69 68 66 61
246 238 237 244 16 47 71 90 97 98 88 66 78 76 70 48 71 96 103 101 98 95 97 100 97 96 92 88 86 83 84 80 75 72 69 67 67 69 68 67 70 71 69 69 66 67 67 64 60
238 252 241 234 62 72 77 82 86 84 82 66 73 87 80 70 87 99 95 92 97 99 101 105 103 102 96 92 87 85 83 79 77 74 71 69 70 70 71 70 71 72 69 69 68 66 65 62 56
264 259 261 19 79 79 75 81 79 79 83 82 87 97 90 97 92 92 95 94 98 104 106 108 109 107 103 99 91 87 84 83 81 79 77 76 76 75 73 74 74 73 70 71 71 68 66 63 57
289 293 299 21 84 81 75 78 80 85 81 69 69 97 110 112 103 97 95 90 93 105 115 118 122 115 110 106 101 97 95 92 91 89 91 91 92 90 85 78 76 75 75 74 75 75 71 67 59
292 291 302 23 73 84 84 77 81 79 77 72 62 99 122 129 125 116 108 107 108 108 116 123 121 123 125 119 117 119 117 114 115 119 119 119 114 112 101 89 80 79 81 83 85 91 89 84 66
267 272 0 33 64 88 96 92 86 87 86 76 67 81 115 131 130 127 124 116 103 98 106 112 111 115 123 127 127 140 143 146 148 163 175 185 181 139 110 99 100 94 93 95 99 111 118 120 88
267 350 31 38 59 99 98 95 113 115 101 99 98 101 121 134 138 137 137 127 118 114 112 111 116 120 110 103 124 149 136 142 165 143 146 171 110 99 105 113 116 123 124 124 135 161 184 204 201
12 43 43 46 53 83 97 92 93 116 103 107 124 131 138 139 142 138 132 129 124 113 101 102 117 114 111 101 98 74 77 83 76 54 82 70 84 129 133 148 151 163 172 187 166 205 232 129 70
73 62 52 62 54 56 88 94 79 68 85 104 123 138 146 145 146 139 128 124 119 115 118 109 102 101 97 95 98 107 84 62 56 359 63 66 43 53 84 114 131 133 92 31 43 48 51 55 51
99 93 85 81 85 84 95 93 91 94 106 110 122 134 145 145 145 137 136 137 132 129 128 102 82 81 87 83 74 84 69 44 59 17 27 75 58 52 60 71 65 75 84 61 31 44 50 49 42
94 106 115 124 124 125 121 127 126 116 126 130 135 143 145 142 145 148 150 145 134 131 120 107 95 86 89 91 78 75 76 60 52 19 7 58 59 55 63 72 58 59 61 60 71 67 57 59 52
152 155 151 164 169 152 147 128 135 132 141 144 145 146 144 148 157 152 143 137 132 128 116 102 96 77 67 57 57 71 66 59 55 25 6 39 58 46 48 66 66 57 59 52 52 65 59 73 69
215 209 184 183 191 177 198 161 145 149 160 156 152 150 154 159 163 149 147 135 126 121 119 121 110 93 78 60 41 55 54 48 52 42 14 12 41 58 49 53 53 53 63 70 69 56 59 54 55
226 241 180 172 174 190 208 160 157 168 177 172 166 163 165 168 163 155 152 137 133 135 137 134 111 113 104 95 78 50 60 52 51 52 25 9 22 45 67 46 48 53 51 50 67 58 54 58 57
280 264 198 157 167 195 196 189 174 178 185 184 180 176 173 171 167 158 155 145 150 152 144 137 131 127 119 94 84 61 45 46 56 55 39 18 21 33 54 54 50 51 50 44 68 75 56 49 36
303 322 327 126 152 216 217 209 190 182 185 188 186 181 179 175 167 155 156 153 161 159 149 149 147 133 110 88 80 85 72 53 59 64 49 28 38 35 44 48 54 53 57 45 68 70 50 34 48
267 277 266 130 139 261 242 228 198 179 187 192 193 186 184 175 166 161 166 163 167 162 157 151 145 130 118 114 119 131 124 104 89 62 47 27 43 40 50 57 70 68 61 49 60 67 41 5 32
261 274 293 259 214 238 248 238 200 182 184 189 197 189 183 180 173 168 169 167 166 167 166 153 149 143 138 135 101 75 72 61 80 79 57 33 49 44 34 43 65 82 78 72 68 67 61 15 356
285 317 292 276 259 252 233 265 196 180 185 192 193 189 182 179 176 167 168 166 169 166 162 161 162 153 141 133 109 114 108 104 107 120 112 83 64 63 43 35 44 70 74 71 56 73 68 60 11
275 289 271 269 271 273 250 259 204 176 185 192 190 190 186 179 174 167 168 165 166 161 160 164 155 136 128 125 124 123 95 100 104 102 100 89 69 62 63 42 36 55 63 70 63 61 50 55 50
249 264 264 258 264 272 245 220 196 173 185 181 183 185 187 178 174 166 162 157 156 150 152 154 142 126 126 132 143 146 117 102 101 99 102 103 94 61 66 61 46 52 52 59 62 66 61 44 34
247 271 288 247 219 247 240 188 128 134 145 164 176 178 182 175 170 167 162 162 158 155 158 154 145 145 150 158 159 145 142 139 123 117 115 102 101 90 75 73 61 57 50 55 53 58 72 66 56
246 248 268 293 280 295 339 94 112 124 131 150 159 162 166 167 170 168 164 162 160 162 163 161 161 160 160 164 158 150 149 132 115 111 111 102 97 106 108 95 88 77 54 65 55 33 33 49 63
243 245 256 282 290 291 170 116 120 122 124 146 154 155 160 165 167 164 162 162 164 167 168 168 166 162 161 161 156 151 138 122 113 117 109 104 110 110 108 113 105 92 67 55 66 48 40 48 40
250 270 268 272 293 297 187 142 130 117 127 147 153 155 161 164 163 163 164 163 165 165 168 170 165 165 162 164 165 152 137 133 131 120 107 105 99 96 114 125 122 116 107 84 59 44 34 69 70
218 238 255 268 263 284 312 77 135 157 159 158 145 143 154 161 161 161 162 162 159 161 165 166 164 164 162 165 160 147 142 145 141 132 129 121 109 112 118 104 106 115 114 108 90 47 28 46 65
241 247 242 252 286 282 277 77 131 150 137 130 129 135 143 149 152 153 154 155 158 166 171 170 170 169 166 166 159 152 152 155 155 155 149 142 133 135 136 126 116 109 105 106 116 102 51 47 47